Terminal Aerodrome Forecast
Issued by NWS Nashville, TN

Home | Current Version | Previous Version | Text Only | Print | Product List | Glossary On
Versions: 1 2 3 4 5 6 7 8 9 10 11 12 13 14 15 16 17 18 19 20 21 22 23 24 25 26 27 28 29 30 31 32 33
000
FTUS44 KOHX 181100
TAFBNA
TAF
KBNA 181120Z 1812/1912 06002KT 6SM BR BKN200
      TEMPO 1812/1813 2SM BR BKN015
     FM181400 09006KT P6SM SCT035
     FM190300 13007KT 4SM -SHRA BR OVC025=

USA.gov is the U.S. government's official web portal to all federal, state and local government web resources and services.